Voltar ao catálogo

STARLINK-37416

AtivoComunicaçõesSSO
NORAD 100310·PAYLOAD·🇺🇸 United States

Lançado Aug 12, 2026 de Vandenberg Space Force Base

Loading…

Próximas Passagens (próximas 24 horas)

TLE

AtualizadoSource: Space-Track

Época: Sep 14, 2026, 19:00 UTC

1 A0310U 26184K   26257.79207505  .00012255  00000-0  34063-3 0  9996
2 A0310  97.2833 122.9608 0001813  80.6441 279.5008 15.37002269  6420

Acompanhe STARLINK-37416 em tempo real com AllMySat

Download on the App Store